H1 CPF 2 NER 2025 10 24 9 297 01 glonass137 H2 1705501 9137 42939 2025 10 24 0 0 0 2025 10 27 23 45 0 900 1 1 0 0 0 1 H9 10 0 60972 0.00000 0 -7989136.636 12216252.361 -20914337.262 10 0 60972 900.00000 0 -10382495.683 12898687.903 -19401250.429 10 0 60972 1800.00000 0 -12522137.213 13683650.212 -17511283.073 10 0 60972 2700.00000 0 -14365375.084 14523145.613 -15281216.669 10 0 60972 3600.00000 0 -15880709.511 15363484.212 -12754421.088 10 0 60972 4500.00000 0 -17048893.898 16147633.287 -9980008.902 10 0 60972 5400.00000 0 -17863496.140 16817727.386 -7011879.214 10 0 60972 6300.00000 0 -18330932.533 17317629.213 -3907669.614 10 0 60972 7200.00000 0 -18469974.419 17595433.251 -727636.782 10 0 60972 8100.00000 0 -18310749.765 17605806.499 2466512.441 10 0 60972 9000.00000 0 -17893282.923 17312067.587 5612816.740 10 0 60972 9900.00000 0 -17265635.085 16687916.572 8650259.457 10 0 60972 10800.00000 0 -16481724.468 15718742.376 11519947.980 10 0 60972 11700.00000 0 -15598918.491 14402452.612 14166250.715 10 0 60972 12600.00000 0 -14675499.508 12749790.440 16537869.897 10 0 60972 13500.00000 0 -13768110.627 10784124.521 18588829.977 10 0 60972 14400.00000 0 -12929288.773 8540719.945 20279363.071 10 0 60972 15300.00000 0 -12205188.221 6065519.482 21576674.982 10 0 60972 16200.00000 0 -11633589.751 3413484.679 22455577.641 10 0 60972 17100.00000 0 -11242278.556 646564.341 22898976.304 10 0 60972 18000.00000 0 -11047858.691 -2168626.648 22898202.397 10 0 60972 18900.00000 0 -11055053.709 -4963323.346 22453185.712 10 0 60972 19800.00000 0 -11256522.992 -7669218.708 21572462.368 10 0 60972 20700.00000 0 -11633201.915 -10221056.496 20273017.910 10 0 60972 21600.00000 0 -12155152.162 -12559102.648 18579967.783 10 0 60972 22500.00000 0 -12782887.216 -14631393.239 16526080.397 10 0 60972 23400.00000 0 -13469118.035 -16395666.071 14151150.970 10 0 60972 24300.00000 0 -14160846.075 -17820895.748 11501237.269 10 0 60972 25200.00000 0 -14801715.873 -18888368.278 8627771.168 10 0 60972 26100.00000 0 -15334528.059 -19592250.276 5586562.693 10 0 60972 27000.00000 0 -15703806.449 -19939628.999 2436715.586 10 0 60972 27900.00000 0 -15858310.115 -19950021.567 -760524.460 10 0 60972 28800.00000 0 -15753383.221 -19654374.236 -3942966.075 10 0 60972 29700.00000 0 -15353042.100 -19093594.363 -7048688.992 10 0 60972 30600.00000 0 -14631709.845 -18316677.542 -10017256.787 10 0 60972 31500.00000 0 -13575523.728 -17378509.790 -12790900.955 10 0 60972 32400.00000 0 -12183158.805 -16337438.477 -15315652.323 10 0 60972 33300.00000 0 -10466131.674 -15252715.433 -17542397.026 10 0 60972 34200.00000 0 -8448570.472 -14181921.012 -19427835.869 10 0 60972 35100.00000 0 -6166459.835 -13178478.452 -20935328.190 10 0 60972 36000.00000 0 -3666391.738 -12289363.765 -22035603.762 10 0 60972 36900.00000 0 -1003873.923 -11553107.774 -22707329.158 10 0 60972 37800.00000 0 1758733.870 -10998174.264 -22937518.012 10 0 60972 38700.00000 0 4554570.250 -10641782.076 -22721777.732 10 0 60972 39600.00000 0 7314811.541 -10489220.011 -22064388.487 10 0 60972 40500.00000 0 9971294.999 -10533682.562 -20978213.434 10 0 60972 41400.00000 0 12459117.335 -10756632.470 -19484442.412 10 0 60972 42300.00000 0 14719101.130 -11128673.961 -17612174.420 10 0 60972 43200.00000 0 16700027.395 -11610899.052 -15397847.209 10 0 60972 44100.00000 0 18360542.320 -12156649.484 -12884525.224 10 0 60972 45000.00000 0 19670659.884 -12713619.413 -10121059.817 10 0 60972 45900.00000 0 20612798.885 -13226209.709 -7161138.117 10 0 60972 46800.00000 0 21182312.428 -13638034.177 -4062239.098 10 0 60972 47700.00000 0 21387489.090 -13894471.654 -884517.219 10 0 60972 48600.00000 0 21249027.072 -13945156.094 2310364.544 10 0 60972 49500.00000 0 20799004.646 -13746299.368 5460429.580 10 0 60972 50400.00000 0 20079391.245 -13262748.645 8504587.136 10 0 60972 51300.00000 0 19140162.569 -12469691.393 11383813.228 10 0 60972 52200.00000 0 18037099.518 -11353935.900 14042290.247 10 0 60972 53100.00000 0 16829363.746 -9914712.965 16428483.486 10 0 60972 54000.00000 0 15576951.654 -8163964.450 18496134.196 10 0 60972 54900.00000 0 14338133.463 -6126105.670 20205150.591 10 0 60972 55800.00000 0 13166984.352 -3837270.442 21522380.167 10 0 60972 56700.00000 0 12111110.613 -1344068.944 22422249.060 10 0 60972 57600.00000 0 11209665.439 1298091.394 22887256.651 10 0 60972 58500.00000 0 10491736.952 4027053.727 22908316.179 10 0 60972 59400.00000 0 9975175.501 6776244.915 22484934.892 10 0 60972 60300.00000 0 9665909.113 9477198.655 21625230.088 10 0 60972 61200.00000 0 9557775.784 12062165.275 20345780.193 10 0 60972 62100.00000 0 9632879.772 14466701.031 18671313.045 10 0 60972 63000.00000 0 9862457.311 16632130.229 16634236.409 10 0 60972 63900.00000 0 10208215.761 18507778.336 14274018.815 10 0 60972 64800.00000 0 10624090.258 20052883.336 11636431.665 10 0 60972 65700.00000 0 11058344.102 21238105.667 8772666.434 10 0 60972 66600.00000 0 11455924.347 22046573.429 5738343.485 10 0 60972 67500.00000 0 11760972.845 22474418.971 2592431.465 10 0 60972 68400.00000 0 11919386.022 22530784.158 -603901.704 10 0 60972 69300.00000 0 11881314.250 22237294.096 -3788483.415 10 0 60972 70200.00000 0 11603493.819 21627021.481 -6899352.681 10 0 60972 71100.00000 0 11051311.500 20742985.650 -9875973.589 10 0 60972 72000.00000 0 10200512.915 19636250.223 -12660421.253 10 0 60972 72900.00000 0 9038481.022 18363700.176 -15198516.282 10 0 60972 73800.00000 0 7565029.298 16985592.867 -17440884.893 10 0 60972 74700.00000 0 5792674.927 15562987.026 -19343923.425 10 0 60972 75600.00000 0 3746379.364 14155158.649 -20870648.213 10 0 60972 76500.00000 0 1462766.222 12817113.016 -21991414.282 10 0 60972 77400.00000 0 -1011151.481 11597297.634 -22684489.074 10 0 60972 78300.00000 0 -3619682.100 10535612.092 -22936470.536 10 0 60972 79200.00000 0 -6300533.272 9661797.921 -22742541.959 10 0 60972 80100.00000 0 -8987170.720 8994275.334 -22106559.196 10 0 60972 81000.00000 0 -11611360.174 8539474.657 -21040969.157 10 0 60972 81900.00000 0 -14105787.088 8291689.377 -19566561.570 10 0 60972 82800.00000 0 -16406645.678 8233455.737 -17712059.234 10 0 60972 83700.00000 0 -18456090.144 8336441.700 -15513554.943 10 0 60972 84600.00000 0 -20204446.799 8562806.726 -13013806.132 10 0 60972 85500.00000 0 -21612095.727 8866974.067 -10261401.087 10 0 60973 0.00000 0 -22650944.381 9197740.008 -7309813.203 10 0 60973 900.00000 0 -23305433.128 9500630.557 -4216360.114 10 0 60973 1800.00000 0 -23573030.487 9720405.105 -1041092.033 10 0 60973 2700.00000 0 -23464200.304 9803601.575 2154374.310 10 0 60973 3600.00000 0 -23001841.870 9701014.801 5308049.477 10 0 60973 4500.00000 0 -22220228.064 9370003.448 8358771.176 10 0 60973 5400.00000 0 -21163486.775 8776527.838 11247386.672 10 0 60973 6300.00000 0 -19883689.926 7896832.491 13917895.009 10 0 60973 7200.00000 0 -18438630.610 6718702.100 16318527.180 10 0 60973 8100.00000 0 -16889381.598 5242237.537 18402743.803 10 0 60973 9000.00000 0 -15297737.346 3480118.489 20130131.602 10 0 60973 9900.00000 0 -13723646.156 1457340.667 21467181.939 10 0 60973 10800.00000 0 -12222739.347 -789562.758 22387937.050 10 0 60973 11700.00000 0 -10844060.007 -3213784.527 22874491.997 10 0 60973 12600.00000 0 -9628085.562 -5759940.496 22917343.010 10 0 60973 13500.00000 0 -8605126.085 -8366131.784 22515575.610 10 0 60973 14400.00000 0 -7794164.765 -10966287.837 21676888.684 10 0 60973 15300.00000 0 -7202188.623 -13492694.563 20417453.558 10 0 60973 16200.00000 0 -6824037.307 -15878603.803 18761610.080 10 0 60973 17100.00000 0 -6642776.240 -18060816.651 16741404.606 10 0 60973 18000.00000 0 -6630578.561 -19982133.754 14395977.827 10 0 60973 18900.00000 0 -6750078.892 -21593570.813 11770813.280 10 0 60973 19800.00000 0 -6956142.025 -22856246.830 8916860.215 10 0 60973 20700.00000 0 -7197971.884 -23742865.912 5889547.232 10 0 60973 21600.00000 0 -7421471.415 -24238730.242 2747705.534 10 0 60973 22500.00000 0 -7571753.119 -24342241.275 -447577.274 10 0 60973 23400.00000 0 -7595693.168 -24064867.803 -3634150.113 10 0 60973 24300.00000 0 -7444419.873 -23430581.983 -6750014.220 10 0 60973 25200.00000 0 -7075629.864 -22474787.153 -9734537.265 10 0 60973 26100.00000 0 -6455632.478 -21242782.831 -12529641.167 10 0 60973 27000.00000 0 -5561034.420 -19787832.037 -15080939.542 10 0 60973 27900.00000 0 -4379992.059 -18168912.921 -17338801.863 10 0 60973 28800.00000 0 -2912977.147 -16448249.945 -19259323.002 10 0 60973 29700.00000 0 -1173022.513 -14688729.123 -20805179.029 10 0 60973 30600.00000 0 814563.680 -12951306.329 -21946352.561 10 0 60973 31500.00000 0 3013003.947 -11292517.729 -22660713.807 10 0 60973 32400.00000 0 5375344.753 -9762196.653 -22934446.419 10 0 60973 33300.00000 0 7846183.558 -8401492.191 -22762310.443 10 0 60973 34200.00000 0 10363757.999 -7241271.765 -22147737.810 10 0 60973 35100.00000 0 12862310.529 -6300973.557 -21102759.081 10 0 60973 36000.00000 0 15274630.411 -5587955.564 -19647763.332 10 0 60973 36900.00000 0 17534667.568 -5097367.159 -17811096.181 10 0 60973 37800.00000 0 19580109.883 -4812546.997 -15628504.023 10 0 60973 38700.00000 0 21354817.105 -4705929.095 -13142435.404 10 0 60973 39600.00000 0 22811010.431 -4740417.565 -10401213.203 10 0 60973 40500.00000 0 23911127.096 -4871170.884 -7458093.760 10 0 60973 41400.00000 0 24629263.275 -5047719.444 -4370231.303 10 0 60973 42300.00000 0 24952145.772 -5216326.190 -1197567.850 10 0 60973 43200.00000 0 24879592.699 -5322490.053 1998329.705 10 0 60973 44100.00000 0 24424444.718 -5313485.926 5155462.722 10 0 60973 45000.00000 0 23611970.500 -5140833.588 8212600.891 10 0 60973 45900.00000 0 22478772.021 -4762591.026 11110466.029 10 0 60973 46800.00000 0 21071236.076 -4145375.121 13792876.826 10 0 60973 47700.00000 0 19443597.193 -3266024.186 16207832.600 10 0 60973 48600.00000 0 17655693.100 -2112831.891 18308515.567 10 0 60973 49500.00000 0 15770506.452 -686300.040 20054192.773 10 0 60973 50400.00000 0 13851595.166 1000622.300 21411000.873 10 0 60973 51300.00000 0 11960518.048 2922824.499 22352599.226 10 0 60973 52200.00000 0 10154362.376 5043834.404 22860679.210 10 0 60973 53100.00000 0 8483475.740 7317100.881 22925320.304 10 0 60973 54000.00000 0 6989495.915 9687707.169 22545186.161 10 0 60973 54900.00000 0 5703760.120 12094445.428 21727556.733 10 0 60973 55800.00000 0 4646159.451 14472167.754 20488195.361 10 0 60973 56700.00000 0 3824485.832 16754317.282 18851052.669 10 0 60973 57600.00000 0 3234298.437 18875535.145 16847812.049 10 0 60973 58500.00000 0 2859314.986 20774235.421 14517284.530 10 0 60973 59400.00000 0 2672311.372 22395041.097 11904663.714 10 0 60973 60300.00000 0 2636491.612 23690979.331 9060654.348 10 0 60973 61200.00000 0 2707270.281 24625343.873 6040490.814 10 0 60973 62100.00000 0 2834391.819 25173146.139 2902864.266 10 0 60973 63000.00000 0 2964296.642 25322093.427 -291220.719 10 0 60973 63900.00000 0 3042633.158 25073052.561 -3479637.335 10 0 60973 64800.00000 0 3016808.321 24439978.961 -6600351.755 10 0 60973 65700.00000 0 2838467.509 23449313.803 -9592637.869 10 0 60973 66600.00000 0 2465797.323 22138874.543 -12398266.873 10 0 60973 67500.00000 0 1865552.421 20556285.649 -14962647.659 10 0 60973 68400.00000 0 1014719.262 18757015.893 -17235895.007 10 0 60973 69300.00000 0 -98254.880 16802105.186 -19173804.161 10 0 60973 70200.00000 0 -1472720.664 14755676.925 -20738712.538 10 0 60973 71100.00000 0 -3095605.494 12682340.617 -21900231.758 10 0 60973 72000.00000 0 -4941722.568 10644593.949 -22635835.967 10 0 60973 72900.00000 0 -6974597.946 8700332.998 -22931295.452 10 0 60973 73800.00000 0 -9147781.617 6900574.450 -22780947.631 10 0 60973 74700.00000 0 -11406588.196 5287484.387 -22187800.764 10 0 60973 75600.00000 0 -13690194.969 3892795.058 -21163468.927 10 0 60973 76500.00000 0 -15934010.078 2736674.500 -19727939.957 10 0 60973 77400.00000 0 -18072212.385 1827094.815 -17909181.279 10 0 60973 78300.00000 0 -20040357.400 1159723.876 -15742591.494 10 0 60973 79200.00000 0 -21777940.946 718343.273 -13270308.521 10 0 60973 80100.00000 0 -23230813.896 475773.300 -10540387.838 10 0 60973 81000.00000 0 -24353347.611 395264.540 -7605866.826 10 0 60973 81900.00000 0 -25110260.034 432296.077 -4523733.443 10 0 60973 82800.00000 0 -25478026.588 536703.403 -1353819.353 10 0 60973 83700.00000 0 -25445817.413 655045.291 1842360.899 10 0 60973 84600.00000 0 -25015922.250 733109.030 5002802.059 10 0 60973 85500.00000 0 -24203645.735 718447.696 8066208.453 10 0 60974 0.00000 0 -23036678.100 562841.977 10973178.889 10 0 60974 900.00000 0 -21553967.281 224582.248 13667354.910 10 0 60974 1800.00000 0 -19804141.497 -329525.381 16096506.504 10 0 60974 2700.00000 0 -17843546.166 -1122514.154 18213539.940 10 0 60974 3600.00000 0 -15733978.423 -2166042.424 19977404.821 10 0 60974 4500.00000 0 -13540212.797 -3459661.819 21353885.019 10 0 60974 5400.00000 0 -11327420.649 -4990599.436 22316258.575 10 0 60974 6300.00000 0 -9158590.058 -6734064.405 22845814.365 10 0 60974 7200.00000 0 -7092052.685 -8654067.424 22932215.886 10 0 60974 8100.00000 0 -5179219.630 -10704720.630 22573705.310 10 0 60974 9000.00000 0 -3462619.568 -12831965.330 21777143.679 10 0 60974 9900.00000 0 -1974320.120 -14975657.127 20557886.015 10 0 60974 10800.00000 0 -734797.539 -17071923.085 18939493.064 10 0 60974 11700.00000 0 247698.661 -19055693.871 16953284.288 10 0 60974 12600.00000 0 977259.963 -20863306.115 14637739.787 10 0 60974 13500.00000 0 1469907.554 -22435066.818 12037761.679 10 0 60974 14400.00000 0 1752673.024 -23717672.692 9203808.394 10 0 60974 15300.00000 0 1862210.051 -24666382.838 6190918.050 10 0 60974 16200.00000 0 1842995.998 -25246853.117 3057639.521 10 0 60974 17100.00000 0 1745199.906 -25436554.445 -135108.042 10 0 60974 18000.00000 0 1622307.783 -25225714.526 -3325224.626 10 0 60974 18900.00000 0 1528606.636 -24617742.635 -6450643.986 10 0 60974 19800.00000 0 1516634.938 -23629118.876 -9450548.956 10 0 60974 20700.00000 0 1634708.763 -22288752.120 -12266562.808 10 0 60974 21600.00000 0 1924629.710 -20636833.426 -14843892.531 10 0 60974 22500.00000 0 2419672.908 -18723233.146 -17132400.984 10 0 60974 23400.00000 0 3142941.462 -16605509.279 -19087586.425 10 0 60974 24300.00000 0 4106157.942 -14346610.927 -20671450.031 10 0 60974 25200.00000 0 5308944.873 -12012373.434 -21853234.531 10 0 60974 26100.00000 0 6738625.355 -9668910.250 -22610019.748 10 0 60974 27000.00000 0 8370552.848 -7380010.620 -22927163.911 10 0 60974 27900.00000 0 10168956.859 -5204651.498 -22798582.700 10 0 60974 28800.00000 0 12088269.501 -3194727.041 -22226861.173 10 0 60974 29700.00000 0 14074877.756 -1393089.503 -21223196.967 10 0 60974 30600.00000 0 16069228.456 168017.909 -19807176.348 10 0 60974 31500.00000 0 18008198.233 1468072.258 -18006387.817 10 0 60974 32400.00000 0 19827629.633 2498881.393 -15855881.046 10 0 60974 33300.00000 0 21464927.638 3264670.058 -13397481.777 10 0 60974 34200.00000 0 22861608.266 3781639.755 -10678976.106 10 0 60974 35100.00000 0 23965692.914 4077022.637 -7753180.060 10 0 60974 36000.00000 0 24733848.528 4187670.821 -4676912.556 10 0 60974 36900.00000 0 25133184.286 4158241.915 -1509891.822 10 0 60974 37800.00000 0 25142629.860 4039058.439 1686423.227 10 0 60974 38700.00000 0 24753837.841 3883732.358 4850024.095 10 0 60974 39600.00000 0 23971572.791 3746655.695 7919553.084 10 0 60974 40500.00000 0 22813570.902 3680463.623 10835489.713 10 0 60974 41400.00000 0 21309876.256 3733577.425 13541300.317 10 0 60974 42300.00000 0 19501681.473 3947931.198 15984528.817 10 0 60974 43200.00000 0 17439721.086 4356978.313 18117807.945 10 0 60974 44100.00000 0 15182284.304 4984061.839 19899771.941 10 0 60974 45000.00000 0 12792929.551 5841217.865 21295853.631 10 0 60974 45900.00000 0 10337995.233 6928462.611 22278951.125 10 0 60974 46800.00000 0 7884009.399 8233594.091 22829951.794 10 0 60974 47700.00000 0 5495105.066 9732517.798 22938103.763 10 0 60974 48600.00000 0 3230547.572 11390084.114 22601227.898 10 0 60974 49500.00000 0 1142475.706 13161403.980 21825766.058 10 0 60974 50400.00000 0 -726050.384 14993589.431 20626664.231 10 0 60974 51300.00000 0 -2342614.103 16827847.765 19027092.131 10 0 60974 52200.00000 0 -3686555.644 18601843.218 17058003.743 10 0 60974 53100.00000 0 -4749587.586 20252228.385 14757546.341 10 0 60974 54000.00000 0 -5535887.597 21717240.175 12170328.385 10 0 60974 54900.00000 0 -6061664.723 22939251.795 9346559.604 10 0 60974 55800.00000 0 -6354217.842 23867173.543 6341079.295 10 0 60974 56700.00000 0 -6450526.377 24458601.139 3212291.373 10 0 60974 57600.00000 0 -6395433.232 24681620.410 21026.824 10 0 60974 58500.00000 0 -6239497.437 24516191.483 -3170643.911 10 0 60974 59400.00000 0 -6036608.192 23955053.143 -6300624.908 10 0 60974 60300.00000 0 -5841462.356 23004108.318 -9308010.605 10 0 60974 61200.00000 0 -5707013.384 21682273.660 -12134278.863 10 0 60974 62100.00000 0 -5682000.970 20020798.953 -14724437.099 10 0 60974 63000.00000 0 -5808667.175 18062084.603 -17028098.366 10 0 60974 63900.00000 0 -6120756.837 15858046.754 -19000465.807 10 0 60974 64800.00000 0 -6641887.746 13468098.657 -20603206.014 10 0 60974 65700.00000 0 -7384360.286 10956832.917 -21805194.246 10 0 60974 66600.00000 0 -8348457.359 8391501.708 -22583117.171 10 0 60974 67500.00000 0 -9522264.633 5839400.220 -22921921.879 10 0 60974 68400.00000 0 -10882019.039 3365262.255 -22815102.920 10 0 60974 69300.00000 0 -12392971.164 1028776.181 -22264822.414 10 0 60974 70200.00000 0 -14010725.569 -1117676.054 -21281861.440 10 0 60974 71100.00000 0 -15683003.028 -3030963.676 -19885404.151 10 0 60974 72000.00000 0 -17351750.968 -4678755.866 -18102659.166 10 0 60974 72900.00000 0 -18955513.862 -6040611.542 -15968325.881 10 0 60974 73800.00000 0 -20431964.412 -7108566.396 -13523916.166 10 0 60974 74700.00000 0 -21720489.601 -7887194.440 -10816944.758 10 0 60974 75600.00000 0 -22764723.383 -8393143.348 -7900004.125 10 0 60974 76500.00000 0 -23514919.966 -8654164.868 -4829741.765 10 0 60974 77400.00000 0 -23930068.293 -8707682.643 -1665759.958 10 0 60974 78300.00000 0 -23979659.167 -8598959.138 1530540.648 10 0 60974 79200.00000 0 -23645030.999 -8378940.038 4697151.044 10 0 60974 80100.00000 0 -22920237.833 -8101867.907 7772654.324 10 0 60974 81000.00000 0 -21812403.274 -7822766.375 10697413.305 10 0 60974 81900.00000 0 -20341545.441 -7594901.399 13414722.474 10 0 60974 82800.00000 0 -18539880.088 -7467326.852 15871902.137 10 0 60974 83700.00000 0 -16450630.691 -7482618.015 18021314.033 10 0 60974 84600.00000 0 -14126394.661 -7674888.496 19821279.303 10 0 60974 85500.00000 0 -11627133.122 -8068174.143 21236881.639 10 0 60975 0.00000 0 -9017867.324 -8675252.104 22240640.652 10 0 60975 900.00000 0 -6366175.053 -9496945.462 22813043.459 10 0 60975 1800.00000 0 -3739593.492 -10521942.521 22942923.326 10 0 60975 2700.00000 0 -1203030.572 -11727140.361 22627680.028 10 0 60975 3600.00000 0 1183705.383 -13078498.778 21873336.059 10 0 60975 4500.00000 0 3368157.525 -14532370.455 20694427.849 10 0 60975 5400.00000 0 5307160.979 -16037253.063 19113733.227 10 0 60975 6300.00000 0 6968391.998 -17535891.217 17161839.555 10 0 60975 7200.00000 0 8331461.825 -18967641.323 14876559.844 10 0 60975 8100.00000 0 9388510.048 -20271000.931 12302207.170 10 0 60975 9000.00000 0 10144273.068 -21386196.873 9488740.555 10 0 60975 9900.00000 0 10615625.135 -22257723.393 6490798.231 10 0 60975 10800.00000 0 10830611.676 -22836723.119 3366636.699 10 0 60975 11700.00000 0 10827016.121 -23083109.902 176996.169 10 0 60975 12600.00000 0 10650521.342 -22967343.034 -3016085.195 10 0 60975 13500.00000 0 10352544.180 -22471776.940 -6150484.534 10 0 60975 14400.00000 0 9987835.606 -21591528.249 -9165210.634 10 0 60975 15300.00000 0 9611949.155 -20334822.603 -12001598.647 10 0 60975 16200.00000 0 9278685.930 -18722805.694 -14604459.025 10 0 60975 17100.00000 0 9037625.445 -16788825.706 -16923157.497 10 0 60975 18000.00000 0 8931847.799 -14577216.909 -18912604.399 10 0 60975 18900.00000 0 8995944.373 -12141635.090 -20534133.789 10 0 60975 19800.00000 0 9254401.773 -9543014.444 -21756255.193 10 0 60975 20700.00000 0 9720427.715 -6847231.283 -22555263.515 10 0 60975 21600.00000 0 10395268.644 -4122572.040 -22915695.701 10 0 60975 22500.00000 0 11268047.989 -1437110.907 -22830625.772 10 0 60975 23400.00000 0 12316131.891 1143893.978 -22301793.120 10 0 60975 24300.00000 0 13506006.997 3560478.055 -21339562.110 10 0 60975 25200.00000 0 14794633.411 5760219.334 -19962714.278 10 0 60975 26100.00000 0 16131215.917 7700166.346 -18198077.524 10 0 60975 27000.00000 0 17459319.068 9348366.148 -16079999.785 10 0 60975 27900.00000 0 18719237.355 10684930.250 -13649677.536 10 0 60975 28800.00000 0 19850520.920 11702595.671 -10954352.285 10 0 60975 29700.00000 0 20794550.763 12406759.452 -8046390.718 10 0 60975 30600.00000 0 21497055.315 12814986.995 -4982266.377 10 0 60975 31500.00000 0 21910462.648 12956016.500 -1821462.782 10 0 60975 32400.00000 0 21995989.505 12868302.913 1374680.677 10 0 60975 33300.00000 0 21725379.373 12598163.910 4544157.574 10 0 60975 34200.00000 0 21082216.523 12197607.060 7625494.873 10 0 60975 35100.00000 0 20062760.739 11721930.487 10558941.692 10 0 60975 36000.00000 0 18676267.482 11227198.630 13287623.492 10 0 60975 36900.00000 0 16944779.733 10767699.758 15758639.582 10 0 60975 37800.00000 0 14902399.696 10393492.383 17924083.064 10 0 60975 38700.00000 0 12594070.107 10148143.826 19741964.069 10 0 60975 39600.00000 0 10073915.133 10066755.999 21177018.935 10 0 60975 40500.00000 0 7403208.925 10174361.327 22201390.374 10 0 60975 41400.00000 0 4648055.146 10484756.324 22795165.981 10 0 60975 42300.00000 0 1876872.656 10999822.065 22946765.083 10 0 60975 43200.00000 0 -842209.573 11709360.634 22653166.612 10 0 60975 44100.00000 0 -3443941.464 12591455.199 21919973.492 10 0 60975 45000.00000 0 -5868418.448 13613339.623 20761311.884 10 0 60975 45900.00000 0 -8063324.273 14732742.277 19199566.556 10 0 60975 46800.00000 0 -9985857.641 15899648.845 17264956.622 10 0 60975 47700.00000 0 -11604263.059 17058411.178 14994958.826 10 0 60975 48600.00000 0 -12898902.598 18150114.428 12433588.569 10 0 60975 49500.00000 0 -13862824.101 19115103.458 9630551.671 10 0 60975 50400.00000 0 -14501802.349 19895562.314 6640282.677 10 0 60975 51300.00000 0 -14833851.769 20438037.799 3520888.000 10 0 60975 52200.00000 0 -14888231.560 20695800.108 333014.385 10 0 60975 53100.00000 0 -14703985.673 20630939.909 -2861334.939 10 0 60975 54000.00000 0 -14328079.926 20216112.209 -6000012.798 10 0 60975 54900.00000 0 -13813215.812 19435852.068 -9021944.849 10 0 60975 55800.00000 0 -13215414.380 18287405.382 -11868325.940 10 0 60975 56700.00000 0 -12591473.462 16781038.501 -14483771.806 10 0 60975 57600.00000 0 -11996406.806 14939812.636 -16817402.895 10 0 60975 58500.00000 0 -11480974.373 12798831.728 -18823838.544 10 0 60975 59400.00000 0 -11089408.962 10403994.756 -20464081.847 10 0 60975 60300.00000 0 -10857435.761 7810304.348 -21706277.917 10 0 60975 61200.00000 0 -10810668.728 5079802.157 -22526330.952 10 0 60975 62100.00000 0 -10963451.531 2279216.994 -22908368.537 10 0 60975 63000.00000 0 -11318191.789 -522576.511 -22845044.663 10 0 60975 63900.00000 0 -11865216.387 -3257183.194 -22337676.170 10 0 60975 64800.00000 0 -12583153.627 -5859287.881 -21396210.544 10 0 60975 65700.00000 0 -13439825.762 -8269123.718 -20039026.168 10 0 60975 66600.00000 0 -14393614.023 -10434706.515 -18292569.325 10 0 60975 67500.00000 0 -15395238.422 -12313743.321 -16190835.252 10 0 60975 68400.00000 0 -16389877.221 -13875137.088 -13774703.471 10 0 60975 69300.00000 0 -17319536.748 -15100026.157 -11091140.442 10 0 60975 70200.00000 0 -18125571.670 -15982316.836 -8192285.037 10 0 60975 71100.00000 0 -18751249.604 -16528688.428 -5134434.642 10 0 60975 72000.00000 0 -19144251.998 -16758072.147 -1976951.671 10 0 60975 72900.00000 0 -19259005.956 -16700627.337 1218888.214 10 0 60975 73800.00000 0 -19058748.742 -16396259.357 4391083.759 10 0 60975 74700.00000 0 -18517237.982 -15892742.610 7478108.499 10 0 60975 75600.00000 0 -17620035.419 -15243528.596 10420100.610 10 0 60975 76500.00000 0 -16365309.983 -14505331.828 13160019.324 10 0 60975 77400.00000 0 -14764126.024 -13735595.591 15644745.680 10 0 60975 78300.00000 0 -12840204.000 -12989944.252 17826106.743 10 0 60975 79200.00000 0 -10629162.812 -12319729.177 19661803.983 10 0 60975 80100.00000 0 -8177274.431 -11769771.170 21116228.432 10 0 60975 81000.00000 0 -5539781.543 -11376394.011 22161147.491 10 0 60975 81900.00000 0 -2778846.896 -11165831.422 22776250.656 10 0 60975 82800.00000 0 38781.804 -11153074.196 22949544.011 10 0 60975 83700.00000 0 2844295.943 -11341205.990 22677586.032 10 0 60975 84600.00000 0 5569435.655 -11721255.937 21965560.050 10 0 60975 85500.00000 0 8149078.052 -12272574.857 20827181.563 99